11/07/2024 08:00:00,0.117
11/07/2024 08:15:00,0.117
11/07/2024 08:30:00,0.117
11/07/2024 08:45:00,0.117
11/07/2024 09:00:00,0.115
11/07/2024 09:15:00,0.115
11/07/2024 09:30:00,0.115
11/07/2024 09:45:00,0.115
11/07/2024 10:00:00,0.122
11/07/2024 10:15:00,0.115
11/07/2024 10:30:00,0.114
11/07/2024 10:45:00,0.113
11/07/2024 11:00:00,0.114
11/07/2024 11:15:00,0.114
11/07/2024 11:30:00,0.113
11/07/2024 11:45:00,0.112
11/07/2024 12:00:00,0.107
11/07/2024 12:15:00,0.107
11/07/2024 12:30:00,0.111
11/07/2024 12:45:00,0.112
11/07/2024 13:00:00,0.112
11/07/2024 13:15:00,0.112
11/07/2024 13:30:00,0.111
11/07/2024 13:45:00,0.111
11/07/2024 14:00:00,0.107
11/07/2024 14:15:00,0.107
11/07/2024 14:30:00,0.107
11/07/2024 14:45:00,0.107
11/07/2024 15:00:00,0.115
11/07/2024 15:15:00,0.112
11/07/2024 15:30:00,0.109
11/07/2024 15:45:00,0.107
11/07/2024 16:00:00,0.105
11/07/2024 16:15:00,0.105
11/07/2024 16:30:00,0.105
11/07/2024 16:45:00,0.105
11/07/2024 17:00:00,0.105
11/07/2024 17:15:00,0.105
11/07/2024 17:30:00,0.107
11/07/2024 17:45:00,0.105
11/07/2024 18:00:00,0.105
11/07/2024 18:15:00,0.104
11/07/2024 18:30:00,0.105
11/07/2024 18:45:00,0.104
11/07/2024 19:00:00,0.105
11/07/2024 19:15:00,0.104
11/07/2024 19:30:00,0.104
11/07/2024 19:45:00,0.104
11/07/2024 20:00:00,0.104
11/07/2024 20:15:00,0.105
11/07/2024 20:30:00,0.104
11/07/2024 20:45:00,0.104
11/07/2024 21:00:00,0.104
11/07/2024 21:15:00,0.102
11/07/2024 21:30:00,0.1
11/07/2024 21:45:00,0.101
11/07/2024 22:00:00,0.102
11/07/2024 22:15:00,0.102
11/07/2024 22:30:00,0.102
11/07/2024 22:45:00,0.102
11/07/2024 23:00:00,0.102
11/07/2024 23:15:00,0.102
11/07/2024 23:30:00,0.102
11/07/2024 23:45:00,0.102
12/07/2024 00:00:00,0.102
12/07/2024 00:15:00,0.102
12/07/2024 00:30:00,0.102
12/07/2024 00:45:00,0.102
12/07/2024 01:00:00,0.102
12/07/2024 01:15:00,0.102
12/07/2024 01:30:00,0.102
12/07/2024 01:45:00,0.102
12/07/2024 02:00:00,0.103
12/07/2024 02:15:00,0.102
12/07/2024 02:30:00,0.101
12/07/2024 02:45:00,0.101
12/07/2024 03:00:00,0.101
12/07/2024 03:15:00,0.101
12/07/2024 03:30:00,0.101
12/07/2024 03:45:00,0.101
12/07/2024 04:00:00,0.101
12/07/2024 04:15:00,0.099
12/07/2024 04:30:00,0.096
12/07/2024 04:45:00,0.095
12/07/2024 05:00:00,0.095
12/07/2024 05:15:00,0.096
12/07/2024 05:30:00,0.096
12/07/2024 05:45:00,0.096
12/07/2024 06:00:00,0.098
12/07/2024 06:15:00,0.098
12/07/2024 06:30:00,0.101
12/07/2024 06:45:00,0.1
12/07/2024 07:00:00,0.099
12/07/2024 07:15:00,0.098
12/07/2024 07:30:00,0.098
12/07/2024 07:45:00,0.096
12/07/2024 08:00:00,0.095
12/07/2024 08:15:00,0.094
12/07/2024 08:30:00,0.093
12/07/2024 08:45:00,0.092
12/07/2024 09:00:00,0.09
12/07/2024 09:15:00,0.09
12/07/2024 09:30:00,0.089
12/07/2024 09:45:00,0.09
12/07/2024 10:00:00,0.09
12/07/2024 10:15:00,0.091
12/07/2024 10:30:00,0.092
12/07/2024 10:45:00,0.093
12/07/2024 11:00:00,0.092
12/07/2024 11:15:00,0.09
12/07/2024 11:30:00,0.088
12/07/2024 11:45:00,0.088
12/07/2024 12:00:00,0.09
12/07/2024 12:15:00,0.088
12/07/2024 12:30:00,0.088
12/07/2024 12:45:00,0.088
12/07/2024 13:00:00,0.089
12/07/2024 13:15:00,0.088
12/07/2024 13:30:00,0.09
12/07/2024 13:45:00,0.088
12/07/2024 14:00:00,0.09
12/07/2024 14:15:00,0.09
12/07/2024 14:30:00,0.09
12/07/2024 14:45:00,0.09
12/07/2024 15:00:00,0.09
12/07/2024 15:15:00,0.09
12/07/2024 15:30:00,0.09
12/07/2024 15:45:00,0.088
12/07/2024 16:00:00,0.085
12/07/2024 16:15:00,0.083
12/07/2024 16:30:00,0.083
12/07/2024 16:45:00,0.083
12/07/2024 17:00:00,0.083
12/07/2024 17:15:00,0.085
12/07/2024 17:30:00,0.085
12/07/2024 17:45:00,0.087
12/07/2024 18:00:00,0.088
12/07/2024 18:15:00,0.088
12/07/2024 18:30:00,0.088
12/07/2024 18:45:00,0.088
12/07/2024 19:00:00,0.087
12/07/2024 19:15:00,0.087
12/07/2024 19:30:00,0.088
12/07/2024 19:45:00,0.087
12/07/2024 20:00:00,0.087
12/07/2024 20:15:00,0.087
12/07/2024 20:30:00,0.085
12/07/2024 20:45:00,0.083
12/07/2024 21:00:00,0.082
12/07/2024 21:15:00,0.082
12/07/2024 21:30:00,0.082
12/07/2024 21:45:00,0.083
12/07/2024 22:00:00,0.084
12/07/2024 22:15:00,0.087
12/07/2024 22:30:00,0.085
12/07/2024 22:45:00,0.085
12/07/2024 23:00:00,0.085
12/07/2024 23:15:00,0.085
12/07/2024 23:30:00,0.085
12/07/2024 23:45:00,0.088
13/07/2024 00:00:00,0.087
13/07/2024 00:15:00,0.087
13/07/2024 00:30:00,0.087
13/07/2024 00:45:00,0.087
13/07/2024 01:00:00,0.085
13/07/2024 01:15:00,0.087
13/07/2024 01:30:00,0.085
13/07/2024 01:45:00,0.085
13/07/2024 02:00:00,0.085
13/07/2024 02:15:00,0.085
13/07/2024 02:30:00,0.087
13/07/2024 02:45:00,0.085
13/07/2024 03:00:00,0.085
13/07/2024 03:15:00,0.085
13/07/2024 03:30:00,0.085
13/07/2024 03:45:00,0.085
13/07/2024 04:00:00,0.085
13/07/2024 04:15:00,0.085
13/07/2024 04:30:00,0.083
13/07/2024 04:45:00,0.082
13/07/2024 05:00:00,0.082
13/07/2024 05:15:00,0.082
13/07/2024 05:30:00,0.082
13/07/2024 05:45:00,0.082
13/07/2024 06:00:00,0.082
13/07/2024 06:15:00,0.082
13/07/2024 06:30:00,0.083
13/07/2024 06:45:00,0.083
13/07/2024 07:00:00,0.083
13/07/2024 07:15:00,0.084
13/07/2024 07:30:00,0.085
13/07/2024 07:45:00,0.085
13/07/2024 08:00:00,0.085
13/07/2024 08:15:00,0.085
13/07/2024 08:30:00,0.085
13/07/2024 08:45:00,0.085
13/07/2024 09:00:00,0.085
13/07/2024 09:15:00,0.085
13/07/2024 09:30:00,0.083
13/07/2024 09:45:00,0.083
13/07/2024 10:00:00,0.082
13/07/2024 10:15:00,0.082
13/07/2024 10:30:00,0.082
13/07/2024 10:45:00,0.082
13/07/2024 11:00:00,0.082
13/07/2024 11:15:00,0.082
13/07/2024 11:30:00,0.082
13/07/2024 11:45:00,0.082
13/07/2024 12:00:00,0.082
13/07/2024 12:15:00,0.082
13/07/2024 12:30:00,0.082
13/07/2024 12:45:00,0.082
13/07/2024 13:00:00,0.083
13/07/2024 13:15:00,0.083
13/07/2024 13:30:00,0.083
13/07/2024 13:45:00,0.083
13/07/2024 14:00:00,0.082
13/07/2024 14:15:00,0.082
13/07/2024 14:30:00,0.082
13/07/2024 14:45:00,0.079
13/07/2024 15:00:00,0.075
13/07/2024 15:15:00,0.071
13/07/2024 15:30:00,0.07
13/07/2024 15:45:00,0.071
13/07/2024 16:00:00,0.072
13/07/2024 16:15:00,0.072
13/07/2024 16:30:00,0.072
13/07/2024 16:45:00,0.072
13/07/2024 17:00:00,0.072
13/07/2024 17:15:00,0.072
13/07/2024 17:30:00,0.073
13/07/2024 17:45:00,0.073
13/07/2024 18:00:00,0.073
13/07/2024 18:15:00,0.073
13/07/2024 18:30:00,0.073
13/07/2024 18:45:00,0.073
13/07/2024 19:00:00,0.073
13/07/2024 19:15:00,0.073
13/07/2024 19:30:00,0.073
13/07/2024 19:45:00,0.073
13/07/2024 20:00:00,0.072
13/07/2024 20:15:00,0.072
13/07/2024 20:30:00,0.073
13/07/2024 20:45:00,0.073
13/07/2024 21:00:00,0.073
13/07/2024 21:15:00,0.073
13/07/2024 21:30:00,0.073
13/07/2024 21:45:00,0.073
13/07/2024 22:00:00,0.073
13/07/2024 22:15:00,0.073
13/07/2024 22:30:00,0.073
13/07/2024 22:45:00,0.073
13/07/2024 23:00:00,0.073
13/07/2024 23:15:00,0.073
13/07/2024 23:30:00,0.073
13/07/2024 23:45:00,0.073
14/07/2024 00:00:00,0.073
14/07/2024 00:15:00,0.074
14/07/2024 00:30:00,0.073
14/07/2024 00:45:00,0.074
14/07/2024 01:00:00,0.074
14/07/2024 01:15:00,0.074
14/07/2024 01:30:00,0.074
14/07/2024 01:45:00,0.074
14/07/2024 02:00:00,0.074
14/07/2024 02:15:00,0.074
14/07/2024 02:30:00,0.074
14/07/2024 02:45:00,0.074
14/07/2024 03:00:00,0.074
14/07/2024 03:15:00,0.074
14/07/2024 03:30:00,0.074
14/07/2024 03:45:00,0.074
14/07/2024 04:00:00,0.074
14/07/2024 04:15:00,0.074
14/07/2024 04:30:00,0.073
14/07/2024 04:45:00,0.074
14/07/2024 05:00:00,0.074
14/07/2024 05:15:00,0.074
14/07/2024 05:30:00,0.074
14/07/2024 05:45:00,0.074
14/07/2024 06:00:00,0.074
14/07/2024 06:15:00,0.073
14/07/2024 06:30:00,0.073
14/07/2024 06:45:00,0.074
14/07/2024 07:00:00,0.074
14/07/2024 07:15:00,0.073
14/07/2024 07:30:00,0.073
14/07/2024 07:45:00,0.073
14/07/2024 08:00:00,0.073
14/07/2024 08:15:00,0.073
14/07/2024 08:30:00,0.075
14/07/2024 08:45:00,0.073
14/07/2024 09:00:00,0.073
14/07/2024 09:15:00,0.073
14/07/2024 09:30:00,0.073
14/07/2024 09:45:00,0.073
14/07/2024 10:00:00,0.073
14/07/2024 10:15:00,0.074
14/07/2024 10:30:00,0.073
14/07/2024 10:45:00,0.073
14/07/2024 11:00:00,0.073
14/07/2024 11:15:00,0.073
14/07/2024 11:30:00,0.073
14/07/2024 11:45:00,0.074
14/07/2024 12:00:00,0.073
14/07/2024 12:15:00,0.073
14/07/2024 12:30:00,0.073
14/07/2024 12:45:00,0.073
14/07/2024 13:00:00,0.073
14/07/2024 13:15:00,0.075
14/07/2024 13:30:00,0.073
14/07/2024 13:45:00,0.073
14/07/2024 14:00:00,0.073
14/07/2024 14:15:00,0.073
14/07/2024 14:30:00,0.073
14/07/2024 14:45:00,0.075
14/07/2024 15:00:00,0.072
14/07/2024 15:15:00,0.071
14/07/2024 15:30:00,0.071
14/07/2024 15:45:00,0.07
14/07/2024 16:00:00,0.069
14/07/2024 16:15:00,0.07
14/07/2024 16:30:00,0.071
14/07/2024 16:45:00,0.071
14/07/2024 17:00:00,0.071
14/07/2024 17:15:00,0.071
14/07/2024 17:30:00,0.072
14/07/2024 17:45:00,0.073
14/07/2024 18:00:00,0.073
14/07/2024 18:15:00,0.073
14/07/2024 18:30:00,0.073
14/07/2024 18:45:00,0.072
14/07/2024 19:00:00,0.074
14/07/2024 19:15:00,0.072
14/07/2024 19:30:00,0.072
14/07/2024 19:45:00,0.073
14/07/2024 20:00:00,0.073
14/07/2024 20:15:00,0.074
14/07/2024 20:30:00,0.072
14/07/2024 20:45:00,0.072
14/07/2024 21:00:00,0.072
14/07/2024 21:15:00,0.072
14/07/2024 21:30:00,0.072
14/07/2024 21:45:00,0.071
14/07/2024 22:00:00,0.071
14/07/2024 22:15:00,0.071
14/07/2024 22:30:00,0.071
14/07/2024 22:45:00,0.072
14/07/2024 23:00:00,0.071
14/07/2024 23:15:00,0.071
14/07/2024 23:30:00,0.071
14/07/2024 23:45:00,0.071
15/07/2024 00:00:00,0.072
15/07/2024 00:15:00,0.071
15/07/2024 00:30:00,0.071
15/07/2024 00:45:00,0.071
15/07/2024 01:00:00,0.071
15/07/2024 01:15:00,0.073
15/07/2024 01:30:00,0.071
15/07/2024 01:45:00,0.071
15/07/2024 02:00:00,0.071
15/07/2024 02:15:00,0.071
15/07/2024 02:30:00,0.071
15/07/2024 02:45:00,0.071
15/07/2024 03:00:00,0.071
15/07/2024 03:15:00,0.071
15/07/2024 03:30:00,0.071
15/07/2024 03:45:00,0.073
15/07/2024 04:00:00,0.071
15/07/2024 04:15:00,0.071
15/07/2024 04:30:00,0.07
15/07/2024 04:45:00,0.069
15/07/2024 05:00:00,0.07
15/07/2024 05:15:00,0.069
15/07/2024 05:30:00,0.07
15/07/2024 05:45:00,0.069
15/07/2024 06:00:00,0.07
15/07/2024 06:15:00,0.071
15/07/2024 06:30:00,0.071
15/07/2024 06:45:00,0.071
15/07/2024 07:00:00,0.073
15/07/2024 07:15:00,0.071
15/07/2024 07:30:00,0.071
15/07/2024 07:45:00,0.077
15/07/2024 08:00:00,0.08
15/07/2024 08:15:00,0.079
15/07/2024 08:30:00,0.078
15/07/2024 08:45:00,0.078
15/07/2024 09:00:00,0.075
15/07/2024 09:15:00,0.075
15/07/2024 09:30:00,0.075
15/07/2024 09:45:00,0.078
15/07/2024 10:00:00,0.075
15/07/2024 10:15:00,0.074
15/07/2024 10:30:00,0.074
15/07/2024 10:45:00,0.073
15/07/2024 11:00:00,0.074
15/07/2024 11:15:00,0.072
15/07/2024 11:30:00,0.072
15/07/2024 11:45:00,0.072
15/07/2024 12:00:00,0.072
15/07/2024 12:15:00,0.073
15/07/2024 12:30:00,0.073
15/07/2024 12:45:00,0.074
15/07/2024 13:00:00,0.075
15/07/2024 13:15:00,0.075
15/07/2024 13:30:00,0.075
15/07/2024 13:45:00,0.075
15/07/2024 14:00:00,0.075
15/07/2024 14:15:00,0.075
15/07/2024 14:30:00,0.075
15/07/2024 14:45:00,0.075
15/07/2024 15:00:00,0.075
15/07/2024 15:15:00,0.075
15/07/2024 15:30:00,0.075
15/07/2024 15:45:00,0.075
15/07/2024 16:00:00,0.078
15/07/2024 16:15:00,0.075
15/07/2024 16:30:00,0.075
15/07/2024 16:45:00,0.075
15/07/2024 17:00:00,0.075
15/07/2024 17:15:00,0.075
15/07/2024 17:30:00,0.074
15/07/2024 17:45:00,0.073
15/07/2024 18:00:00,0.071
15/07/2024 18:15:00,0.071
15/07/2024 18:30:00,0.071
15/07/2024 18:45:00,0.071
15/07/2024 19:00:00,0.073
15/07/2024 19:15:00,0.074
15/07/2024 19:30:00,0.074
15/07/2024 19:45:00,0.074
15/07/2024 20:00:00,0.074
15/07/2024 20:15:00,0.075
15/07/2024 20:30:00,0.078
15/07/2024 20:45:00,0.082
15/07/2024 21:00:00,0.085
15/07/2024 21:15:00,0.093
15/07/2024 21:30:00,0.105
15/07/2024 21:45:00,0.124
15/07/2024 22:00:00,0.146
15/07/2024 22:15:00,0.157
15/07/2024 22:30:00,0.164
15/07/2024 22:45:00,0.169
15/07/2024 23:00:00,0.178
15/07/2024 23:15:00,0.18
15/07/2024 23:30:00,0.183
15/07/2024 23:45:00,0.197
16/07/2024 00:00:00,0.21
16/07/2024 00:15:00,0.242
16/07/2024 00:30:00,0.393
16/07/2024 00:45:00,0.404
16/07/2024 01:00:00,0.396
16/07/2024 01:15:00,0.382
16/07/2024 01:30:00,0.37
16/07/2024 01:45:00,0.357
16/07/2024 02:00:00,0.343
16/07/2024 02:15:00,0.33
16/07/2024 02:30:00,0.319
16/07/2024 02:45:00,0.306
16/07/2024 03:00:00,0.295
16/07/2024 03:15:00,0.284
16/07/2024 03:30:00,0.276
16/07/2024 03:45:00,0.266
16/07/2024 04:00:00,0.258
16/07/2024 04:15:00,0.252
16/07/2024 04:30:00,0.247
16/07/2024 04:45:00,0.24
16/07/2024 05:00:00,0.234
16/07/2024 05:15:00,0.23
